Regional Weather Roundup
Issued by NWS

Home | Current Version | Previous Version | Text Only | Print | Product List | Glossary Off
Versions: 1 2 3 4 5 6 7 8 9 10 11 12 13 14 15 16 17 18 19 20 21 22 23 24 25 26 27 28 29 30 31 32 33 34 35 36 37 38 39 40 41 42 43 44 45 46 47 48 49 50

892
ASUS45 KTFX 111410
RWRMT
MONTANA REGIONAL WEATHER ROUNDUP
NATIONAL WEATHER SERVICE GREAT FALLS MT
700 AM MST THU FEB 11 2016

NOTE: "FAIR" INDICATES FEW OR NO CLOUDS BELOW 12000 FEET WITH NO
SIGNIFICANT WEATHER AND/OR OBSTRUCTIONS TO VISIBILITY.

MTZ001>007-043-111500-
WEST OF THE DIVIDE

CITY           SKY/WX    TMP DP  RH WIND       PRES   REMARKS
KALISPELL      CLOUDY    32  30  92 CALM      30.25R
MISSOULA       PTCLDY    31  29  92 CALM      30.29S
BUTTE          CLOUDY    25  20  81 W3        30.24S
MULLAN PASS    MOCLDY    32  30  92 VRB3      30.25S
ANACONDA         N/A     45  28  53 SW6G17    30.24S
DEER LODGE       N/A     34  28  80 CALM      30.25S
HAMILTON         N/A     43  30  61 CALM      30.27S
$$

MTZ008-052>055-111500-
SOUTHWEST MONTANA

CITY           SKY/WX    TMP DP  RH WIND       PRES   REMARKS
BOZEMAN        CLOUDY    29  23  78 S7        30.22F WCI  22
DILLON         CLOUDY    35  24  64 S20       30.24R WCI  24
ENNIS          MOCLDY    36  25  64 S20G28    30.31R WCI  25
THREE FORKS      N/A     32  32 100 CALM      30.19R
$$

MTZ009-010-012-014-046-048-049-054-111500-
EAST SLOPES AND CENTRAL MONTANA

CITY           SKY/WX    TMP DP  RH WIND       PRES   REMARKS
CUT BANK       MOCLDY    40  26  57 W17       30.08R
GREAT FALLS    CLOUDY    35  23  61 SW10      30.12R WCI  27
MALMSTROM AFB  CLOUDY    36  26  67 SW9       30.12S WCI  29
HELENA         CLOUDY    44  31  60 W13G20    30.20S
CHOTEAU          N/A     46  25  42 W16G25    30.12F
CONRAD           N/A     42  30  62 SW12      30.10R
$$

MTZ011-013-016-021-045-047-050-051-111500-
NORTH CENTRAL MONTANA

CITY           SKY/WX    TMP DP  RH WIND       PRES   REMARKS
HAVRE          MOCLDY    30  28  92 W6        30.05R WCI  24
LEWISTOWN      CLOUDY    42  28  57 W20       30.07R
N BAR RANCH      N/A     43  27  52 NW26G33   30.06R
CHINOOK          N/A     34  30  86 W9        30.03R WCI  26
$$

MTZ017>020-022>027-061-062-111500-
NORTHEAST MONTANA

CITY           SKY/WX    TMP DP  RH WIND       PRES   REMARKS
GLASGOW        LGT SNOW  29  25  85 E10       30.02R FOG     WCI  20
JORDAN           N/A     35  32  88 NW7       29.98R WCI  29
SIDNEY         CLOUDY    27  25  93 N6        30.04S WCI  20
WOLF POINT     LGT SNOW  28  24  85 E9        30.04S FOG     WCI  19
MALTA            N/A    N/A N/A N/A MISG      29.99
PLENTYWOOD       N/A     19  16  86 NE10      30.07R WCI   8
POPLAR           N/A     25  23  93 NE9       30.05S WCI  15
$$

MTZ028>42-056>058-111500-
SOUTHCENTRAL AND SOUTHEAST MONTANA

CITY           SKY/WX    TMP DP  RH WIND       PRES   REMARKS
BAKER          CLOUDY    31  27  85 CALM      29.94F
BILLINGS       CLOUDY    49  24  37 NW17G23   30.09R
LIVINGSTON     CLOUDY    47  21  35 SW37G51   30.11F
MILES CITY     CLOUDY    30  28  92 SW6       29.99R WCI  24
FORSYTH          N/A     32  30  93 W9        30.02R WCI  24
LAUREL           N/A     42  20  41 W1        30.07R
ROUNDUP          N/A     46  24  42 MISG      29.97R
$$

REGIONAL REPORTS...DAKOTAS

CITY           SKY/WX    TMP DP  RH WIND       PRES   REMARKS
WILLISTON      LGT SNOW  22  19  89 NE8       30.07S FOG     WCI  12
MINOT          CLOUDY    14   7  73 NE5       30.13S
DICKINSON      LGT SNOW  22  20  92 E9        29.98S FOG     WCI  12
BEACH          LGT SNOW  28  28 100 E8        30.01R WCI  20
CROSBY         LGT SNOW  16  16 100 E12       30.13S WCI   3
TIOGA          LGT SNOW  18  18 100 E8        30.12S WCI   7
WATFORD CITY   LGT SNOW  21  19  93 E6        30.06R WCI  14
BISMARCK       LGT SNOW  20  14  77 E6        30.12F WCI  12
GRAND FORKS    CLOUDY     6  -1  73 SE7       30.26S WCI  -6
FARGO          CLOUDY     7  -1  70 CALM      30.27S
BUFFALO SD       N/A     31  28  89 S13       29.90F WCI  21
RAPID CITY     FOG       27  27 100 S7        29.98R VSB 1/4 WCI  19
$$

REGIONAL REPORTS...WYOMING/IDAHO/WASHINGTON

CITY           SKY/WX    TMP DP  RH WIND       PRES   REMARKS
GILLETTE       CLOUDY    40  24  53 W12       30.04R
SHERIDAN       PTCLDY    45  21  39 N5        30.04R
BUFFALO WY     CLEAR     46  22  38 N9        30.08R
CODY           CLOUDY    48  18  29 NW8G23    30.09S
YELLOWSTONE LA   N/A     21  15  78 CALM      30.34R
IDAHO FALLS    CLOUDY    12   9  87 NW3       30.40S
SALMON         CLOUDY    10   7  85 CALM      30.40S
BOISE          PTCLDY    30  29  96 N3        30.41S FOG
SPOKANE        FOG       31  31 100 CALM      30.29S VSB 1/8
$$

REGIONAL REPORTS...ALBERTA

CITY           SKY/WX    TMP DP  RH WIND       PRES   REMARKS
EDMONTON       LGT SNOW  19  16  86 E6        30.13R WCI  11
CALGARY        MOCLDY    28  27  93 CALM      30.08R
LETHBRIDGE     FOG       27  27 100 NW6       30.09R VSB 1/4 WCI  20
MEDICINE HAT   CLOUDY    28  28 100 NW8       30.09R WCI  20
CARDSTON         N/A     41  19  42 W10         N/A
MILK RIVER       N/A     39  27  60 NW13        N/A  WCI  32
ONEFOUR          N/A     30  28  93 NW21G26     N/A  WCI  17
$$

REGIONAL REPORTS...SASKATCHEWAN

CITY           SKY/WX    TMP DP  RH WIND       PRES   REMARKS
SWIFT CURRENT  LGT SNOW  18  16  93 E13       30.05R WCI   4
REGINA         FLURRIES  14  10  85 E6        30.14S WCI   5
SASKATOON      FLURRIES   7   5  92 NE12      30.25R WCI  -9
CYPRESS HILLS    N/A     27  25  93 NW12G18     N/A  WCI  16
VAL MARIE        N/A     27  27 100 NE3         N/A
ROCKGLEN         N/A     19  18  93 E2          N/A
ASSINIBOIA       N/A     18  14  86 E5          N/A
$$




USA.gov is the U.S. government's official web portal to all federal, state and local government web resources and services.